Time,TemperatureF,DewpointF,PressureIn,WindDirection,WindDirectionDegrees,WindSpeedMPH,WindSpeedGustMPH,Humidity,HourlyPrecipIn,Conditions,Clouds,dailyrainin,SoftwareType,DateUTC
2013-01-20 00:02:00,12.7,-99.9,30.18,ESE,111,6.0,9.2,-999,0.00,,,-99.99,FreeWX 2.04,2013-01-20 07:02:00,
2013-01-20 00:12:00,12.9,-99.9,30.18,ESE,112,6.0,9.6,-999,0.00,,,-99.99,FreeWX 2.04,2013-01-20 07:12:00,
2013-01-20 00:22:00,12.4,-99.9,30.18,ESE,115,5.0,9.2,-999,0.00,,,-99.99,FreeWX 2.04,2013-01-20 07:22:00,
2013-01-20 00:32:00,11.5,-99.9,30.18,SE,126,6.0,10.5,-999,0.00,,,-99.99,FreeWX 2.04,2013-01-20 07:32:00,
2013-01-20 00:42:00,12.0,-99.9,30.18,ESE,108,6.0,9.6,-999,0.00,,,-99.99,FreeWX 2.04,2013-01-20 07:42:00,
2013-01-20 00:52:00,12.0,-99.9,30.18,East,99,6.0,10.1,-999,0.00,,,-99.99,FreeWX 2.04,2013-01-20 07:52:00,
2013-01-20 01:02:00,12.0,-99.9,30.18,East,97,6.0,9.6,-999,0.00,,,-99.99,FreeWX 2.04,2013-01-20 08:02:00,
2013-01-20 01:12:00,12.7,-99.9,30.18,East,100,6.0,10.1,-999,0.00,,,-99.99,FreeWX 2.04,2013-01-20 08:12:00,
2013-01-20 01:22:00,12.0,-99.9,30.18,ESE,103,6.0,10.5,-999,0.00,,,-99.99,FreeWX 2.04,2013-01-20 08:22:00,
2013-01-20 01:32:00,11.8,-99.9,30.18,East,95,4.0,7.8,-999,0.00,,,-99.99,FreeWX 2.04,2013-01-20 08:32:00,
2013-01-20 01:42:00,10.9,-99.9,30.18,SE,142,5.0,7.4,-999,0.00,,,-99.99,FreeWX 2.04,2013-01-20 08:42:00,
2013-01-20 01:52:00,11.1,-99.9,30.18,ESE,104,4.0,8.3,-999,0.00,,,-99.99,FreeWX 2.04,2013-01-20 08:52:00,
2013-01-20 02:02:00,11.8,-99.9,30.18,East,101,5.0,8.7,-999,0.00,,,-99.99,FreeWX 2.04,2013-01-20 09:02:00,
2013-01-20 02:12:00,11.8,-99.9,30.18,ESE,110,5.0,8.3,-999,0.00,,,-99.99,FreeWX 2.04,2013-01-20 09:12:00,
2013-01-20 02:22:00,10.4,-99.9,30.18,ESE,107,5.0,12.1,-999,0.00,,,-99.99,FreeWX 2.04,2013-01-20 09:22:00,
2013-01-20 02:32:00,10.8,-99.9,30.18,ESE,118,7.0,12.5,-999,0.00,,,-99.99,FreeWX 2.04,2013-01-20 09:32:00,
2013-01-20 02:42:00,11.3,-99.9,30.18,ESE,114,5.0,10.1,-999,0.00,,,-99.99,FreeWX 2.04,2013-01-20 09:42:00,
2013-01-20 02:52:00,11.7,-99.9,30.18,East,101,7.0,11.2,-999,0.00,,,-99.99,FreeWX 2.04,2013-01-20 09:52:00,
2013-01-20 03:02:00,12.0,-99.9,30.18,ESE,112,5.0,7.4,-999,0.00,,,-99.99,FreeWX 2.04,2013-01-20 10:02:00,
2013-01-20 03:12:00,11.5,-99.9,30.18,ESE,110,7.0,12.5,-999,0.00,,,-99.99,FreeWX 2.04,2013-01-20 10:12:00,
2013-01-20 03:22:00,11.1,-99.9,30.18,ESE,104,6.0,11.0,-999,0.00,,,-99.99,FreeWX 2.04,2013-01-20 10:22:00,
2013-01-20 03:32:00,10.9,-99.9,30.18,ESE,108,5.0,10.5,-999,0.00,,,-99.99,FreeWX 2.04,2013-01-20 10:32:00,
2013-01-20 03:42:00,11.7,-99.9,30.18,ESE,108,7.0,11.2,-999,0.00,,,-99.99,FreeWX 2.04,2013-01-20 10:42:00,
2013-01-20 03:52:00,11.5,-99.9,30.18,ESE,102,6.0,9.6,-999,0.00,,,-99.99,FreeWX 2.04,2013-01-20 10:52:00,
2013-01-20 04:02:00,12.0,-99.9,30.18,East,99,6.0,11.6,-999,0.00,,,-99.99,FreeWX 2.04,2013-01-20 11:02:00,
2013-01-20 04:12:00,11.8,-99.9,30.15,ESE,106,7.0,10.1,-999,0.00,,,-99.99,FreeWX 2.04,2013-01-20 11:12:00,
2013-01-20 04:23:00,12.6,-99.9,30.15,ESE,106,7.0,11.0,-999,0.00,,,-99.99,FreeWX 2.04,2013-01-20 11:23:00,
2013-01-20 04:33:00,12.4,-99.9,30.15,ESE,102,7.0,11.2,-999,0.00,,,-99.99,FreeWX 2.04,2013-01-20 11:33:00,
2013-01-20 04:43:00,12.4,-99.9,30.15,ESE,106,7.0,11.2,-999,0.00,,,-99.99,FreeWX 2.04,2013-01-20 11:43:00,
2013-01-20 04:53:00,11.5,-99.9,30.15,NE,45,5.0,7.4,-999,0.00,,,-99.99,FreeWX 2.04,2013-01-20 11:53:00,
2013-01-20 05:03:00,10.8,-99.9,30.15,East,91,4.0,10.5,-999,0.00,,,-99.99,FreeWX 2.04,2013-01-20 12:03:00,
2013-01-20 05:13:00,11.5,-99.9,30.15,SE,146,5.0,9.2,-999,0.00,,,-99.99,FreeWX 2.04,2013-01-20 12:13:00,
2013-01-20 05:23:00,11.8,-99.9,30.15,SE,133,4.0,8.3,-999,0.00,,,-99.99,FreeWX 2.04,2013-01-20 12:23:00,
2013-01-20 05:33:00,12.0,-99.9,30.15,East,91,4.0,8.3,-999,0.00,,,-99.99,FreeWX 2.04,2013-01-20 12:33:00,
2013-01-20 05:43:00,12.4,-99.9,30.15,East,96,5.0,6.9,-999,0.00,,,-99.99,FreeWX 2.04,2013-01-20 12:43:00,
2013-01-20 05:53:00,13.1,-99.9,30.15,East,91,5.0,8.7,-999,0.00,,,-99.99,FreeWX 2.04,2013-01-20 12:53:00,
2013-01-20 06:03:00,13.3,-99.9,30.15,East,93,5.0,7.4,-999,0.00,,,-99.99,FreeWX 2.04,2013-01-20 13:03:00,
2013-01-20 06:13:00,12.9,-99.9,30.15,East,89,4.0,6.7,-999,0.00,,,-99.99,FreeWX 2.04,2013-01-20 13:13:00,
2013-01-20 06:23:00,12.9,-99.9,30.15,East,97,4.0,9.2,-999,0.00,,,-99.99,FreeWX 2.04,2013-01-20 13:23:00,
2013-01-20 06:33:00,13.3,-99.9,30.15,East,100,5.0,8.7,-999,0.00,,,-99.99,FreeWX 2.04,2013-01-20 13:33:00,
2013-01-20 06:43:00,12.9,-99.9,30.15,East,81,4.0,7.4,-999,0.00,,,-99.99,FreeWX 2.04,2013-01-20 13:43:00,
2013-01-20 06:53:00,13.5,-99.9,30.15,East,84,5.0,7.4,-999,0.00,,,-99.99,FreeWX 2.04,2013-01-20 13:53:00,
2013-01-20 07:03:00,13.1,-99.9,30.15,East,97,5.0,8.3,-999,0.00,,,-99.99,FreeWX 2.04,2013-01-20 14:03:00,
2013-01-20 07:13:00,12.6,-99.9,30.15,ESE,118,4.0,6.9,-999,0.00,,,-99.99,FreeWX 2.04,2013-01-20 14:13:00,
2013-01-20 07:23:00,12.0,-99.9,30.15,ESE,111,5.0,8.3,-999,0.00,,,-99.99,FreeWX 2.04,2013-01-20 14:23:00,
2013-01-20 07:33:00,12.0,-99.9,30.15,East,99,5.0,8.7,-999,0.00,,,-99.99,FreeWX 2.04,2013-01-20 14:33:00,
2013-01-20 07:43:00,12.6,-99.9,30.15,East,92,5.0,9.2,-999,0.00,,,-99.99,FreeWX 2.04,2013-01-20 14:43:00,
2013-01-20 07:53:00,12.4,-99.9,30.15,East,91,5.0,7.8,-999,0.00,,,-99.99,FreeWX 2.04,2013-01-20 14:53:00,
2013-01-20 08:03:00,12.7,-99.9,30.15,East,100,6.0,11.0,-999,0.00,,,-99.99,FreeWX 2.04,2013-01-20 15:03:00,
2013-01-20 08:13:00,12.6,-99.9,30.15,East,97,5.0,7.8,-999,0.00,,,-99.99,FreeWX 2.04,2013-01-20 15:13:00,
2013-01-20 08:23:00,12.4,-99.9,30.15,East,97,4.0,6.7,-999,0.00,,,-99.99,FreeWX 2.04,2013-01-20 15:23:00,
2013-01-20 08:33:00,12.2,-99.9,30.15,East,92,4.0,7.4,-999,0.00,,,-99.99,FreeWX 2.04,2013-01-20 15:33:00,
2013-01-20 08:43:00,12.9,-99.9,30.15,East,86,5.0,6.9,-999,0.00,,,-99.99,FreeWX 2.04,2013-01-20 15:43:00,
2013-01-20 08:53:00,15.8,-2.2,30.15,ENE,72,5.0,7.4,44,0.00,,,-99.99,FreeWX 2.04,2013-01-20 15:53:00,
2013-01-20 09:03:00,17.4,-4.4,30.15,ESE,119,4.0,7.4,37,0.00,,,-99.99,FreeWX 2.04,2013-01-20 16:03:00,
2013-01-20 09:13:00,14.9,-6.0,30.18,SSE,159,5.0,7.4,38,0.00,,,-99.99,FreeWX 2.04,2013-01-20 16:13:00,
2013-01-20 09:23:00,16.7,-3.8,30.18,SSE,154,6.0,8.7,39,0.00,,,-99.99,FreeWX 2.04,2013-01-20 16:23:00,
2013-01-20 09:33:00,20.5,-2.7,30.18,ESE,114,4.0,7.8,35,0.00,,,-99.99,FreeWX 2.04,2013-01-20 16:33:00,
2013-01-20 09:43:00,22.1,-2.6,30.18,ESE,111,2.0,5.8,33,0.00,,,-99.99,FreeWX 2.04,2013-01-20 16:43:00,
2013-01-20 09:53:00,22.3,-2.4,30.18,SE,139,5.0,8.7,33,0.00,,,-99.99,FreeWX 2.04,2013-01-20 16:53:00,
2013-01-20 10:03:00,21.6,-5.1,30.18,ESE,111,3.0,7.4,30,0.00,,,-99.99,FreeWX 2.04,2013-01-20 17:03:00,
2013-01-20 10:14:00,17.4,-6.2,30.18,NNW,343,3.0,6.9,34,0.00,,,-99.99,FreeWX 2.04,2013-01-20 17:14:00,
2013-01-20 10:24:00,17.4,-4.9,30.18,NNW,333,1.0,4.9,36,0.00,,,-99.99,FreeWX 2.04,2013-01-20 17:24:00,
2013-01-20 10:34:00,18.9,-4.2,30.18,North,-999,0.0,0.0,35,0.00,,,-99.99,FreeWX 2.04,2013-01-20 17:34:00,
2013-01-20 10:44:00,19.6,-3.6,30.18,SSW,207,1.0,4.9,35,0.00,,,-99.99,FreeWX 2.04,2013-01-20 17:44:00,
2013-01-20 10:54:00,24.3,-0.6,30.18,North,-999,0.0,3.6,33,0.00,,,-99.99,FreeWX 2.04,2013-01-20 17:54:00,
2013-01-20 11:04:00,27.3,-0.8,30.18,North,-999,0.0,0.0,29,0.00,,,-99.99,FreeWX 2.04,2013-01-20 18:04:00,
2013-01-20 11:14:00,26.6,-3.6,30.18,West,275,4.0,5.8,26,0.00,,,-99.99,FreeWX 2.04,2013-01-20 18:14:00,
2013-01-20 11:24:00,28.0,-4.9,30.18,NNW,339,4.0,6.3,23,0.00,,,-99.99,FreeWX 2.04,2013-01-20 18:24:00,
2013-01-20 11:34:00,28.4,-4.5,30.18,NNW,338,5.0,6.9,23,0.00,,,-99.99,FreeWX 2.04,2013-01-20 18:34:00,
2013-01-20 11:44:00,25.3,-4.0,30.18,WNW,295,5.0,6.9,27,0.00,,,-99.99,FreeWX 2.04,2013-01-20 18:44:00,
2013-01-20 11:54:00,20.3,-4.2,30.18,NNW,336,5.0,7.4,33,0.00,,,-99.99,FreeWX 2.04,2013-01-20 18:54:00,
2013-01-20 12:04:00,20.5,-4.0,30.18,SW,225,2.0,6.3,33,0.00,,,-99.99,FreeWX 2.04,2013-01-20 19:04:00,
2013-01-20 12:14:00,20.7,-3.3,30.18,SSW,198,1.0,5.4,34,0.00,,,-99.99,FreeWX 2.04,2013-01-20 19:14:00,
2013-01-20 12:24:00,22.1,-2.6,30.18,SSW,196,1.0,4.0,33,0.00,,,-99.99,FreeWX 2.04,2013-01-20 19:24:00,
2013-01-20 12:34:00,25.2,-0.6,30.18,SSW,197,1.0,4.5,32,0.00,,,-99.99,FreeWX 2.04,2013-01-20 19:34:00,
2013-01-20 12:44:00,26.2,-4.0,30.18,SSW,208,2.0,5.4,26,0.00,,,-99.99,FreeWX 2.04,2013-01-20 19:44:00,
2013-01-20 12:54:00,26.6,-5.3,30.15,SW,217,1.0,4.9,24,0.00,,,-99.99,FreeWX 2.04,2013-01-20 19:54:00,
2013-01-20 13:04:00,25.9,-5.8,30.15,WSW,253,2.0,4.9,24,0.00,,,-99.99,FreeWX 2.04,2013-01-20 20:04:00,
2013-01-20 13:14:00,26.6,-5.3,30.18,West,273,2.0,6.3,24,0.00,,,-99.99,FreeWX 2.04,2013-01-20 20:14:00,
2013-01-20 13:24:00,26.4,-5.4,30.18,WSW,245,2.0,5.4,24,0.00,,,-99.99,FreeWX 2.04,2013-01-20 20:24:00,
2013-01-20 13:34:00,27.1,-4.7,30.18,WSW,240,2.0,5.4,24,0.00,,,-99.99,FreeWX 2.04,2013-01-20 20:34:00,
2013-01-20 13:44:00,27.1,-4.7,30.18,WSW,238,2.0,4.9,24,0.00,,,-99.99,FreeWX 2.04,2013-01-20 20:44:00,
2013-01-20 13:54:00,26.2,-5.6,30.15,WSW,246,2.0,4.9,24,0.00,,,-99.99,FreeWX 2.04,2013-01-20 20:54:00,
2013-01-20 14:04:00,25.0,-6.7,30.15,West,273,2.0,5.4,24,0.00,,,-99.99,FreeWX 2.04,2013-01-20 21:04:00,
2013-01-20 14:14:00,24.8,-6.9,30.15,West,276,3.0,4.9,24,0.00,,,-99.99,FreeWX 2.04,2013-01-20 21:14:00,
2013-01-20 14:24:00,25.3,-6.3,30.15,WSW,257,1.0,4.9,24,0.00,,,-99.99,FreeWX 2.04,2013-01-20 21:24:00,
2013-01-20 14:34:00,27.0,-4.9,30.15,North,-999,0.0,3.6,24,0.00,,,-99.99,FreeWX 2.04,2013-01-20 21:34:00,
2013-01-20 14:44:00,26.2,-5.6,30.15,North,-999,0.0,2.7,24,0.00,,,-99.99,FreeWX 2.04,2013-01-20 21:44:00,
2013-01-20 14:54:00,26.2,-5.6,30.15,North,-999,0.0,0.0,24,0.00,,,-99.99,FreeWX 2.04,2013-01-20 21:54:00,
2013-01-20 15:04:00,27.7,-5.3,30.15,North,-999,0.0,4.5,23,0.00,,,-99.99,FreeWX 2.04,2013-01-20 22:04:00,
2013-01-20 15:14:00,27.0,-4.9,30.15,North,-999,0.0,2.7,24,0.00,,,-99.99,FreeWX 2.04,2013-01-20 22:14:00,
2013-01-20 15:24:00,27.0,-4.9,30.15,North,-999,0.0,0.0,24,0.00,,,-99.99,FreeWX 2.04,2013-01-20 22:24:00,
2013-01-20 15:34:00,26.2,-5.6,30.15,North,-999,0.0,4.0,24,0.00,,,-99.99,FreeWX 2.04,2013-01-20 22:34:00,
2013-01-20 15:44:00,25.7,-6.0,30.15,North,-999,0.0,3.1,24,0.00,,,-99.99,FreeWX 2.04,2013-01-20 22:44:00,
2013-01-20 15:54:00,26.2,-5.6,30.15,North,-999,0.0,3.6,24,0.00,,,-99.99,FreeWX 2.04,2013-01-20 22:54:00,
2013-01-20 16:04:00,25.7,-6.0,30.15,North,-999,0.0,0.0,24,0.00,,,-99.99,FreeWX 2.04,2013-01-20 23:04:00,
2013-01-20 16:14:00,25.9,-5.8,30.15,North,-999,0.0,0.0,24,0.00,,,-99.99,FreeWX 2.04,2013-01-20 23:14:00,
2013-01-20 16:24:00,22.5,-8.0,30.15,North,-999,0.0,3.6,25,0.00,,,-99.99,FreeWX 2.04,2013-01-20 23:24:00,
2013-01-20 16:34:00,20.3,-6.2,30.15,WSW,253,1.0,4.9,30,0.00,,,-99.99,FreeWX 2.04,2013-01-20 23:34:00,
2013-01-20 16:44:00,19.2,-5.1,30.15,North,-999,0.0,4.5,33,0.00,,,-99.99,FreeWX 2.04,2013-01-20 23:44:00,
2013-01-20 16:54:00,17.6,-5.3,30.15,North,-999,0.0,0.0,35,0.00,,,-99.99,FreeWX 2.04,2013-01-20 23:54:00,
2013-01-20 17:04:00,16.7,-5.6,30.15,North,-999,0.0,3.1,36,0.00,,,-99.99,FreeWX 2.04,2013-01-21 00:04:00,
2013-01-20 17:14:00,16.2,-5.4,30.15,North,-999,0.0,3.1,37,0.00,,,-99.99,FreeWX 2.04,2013-01-21 00:14:00,
2013-01-20 17:24:00,15.3,-5.3,30.15,WSW,250,1.0,4.5,39,0.00,,,-99.99,FreeWX 2.04,2013-01-21 00:24:00,
2013-01-20 17:34:00,14.9,-4.0,30.15,North,-999,0.0,4.5,42,0.00,,,-99.99,FreeWX 2.04,2013-01-21 00:34:00,
2013-01-20 17:44:00,13.5,-99.9,30.15,North,-999,0.0,0.0,-999,0.00,,,-99.99,FreeWX 2.04,2013-01-21 00:44:00,
2013-01-20 17:54:00,13.1,-99.9,30.15,SSW,199,2.0,4.9,-999,0.00,,,-99.99,FreeWX 2.04,2013-01-21 00:54:00,
2013-01-20 18:04:00,13.6,-99.9,30.15,South,173,3.0,6.3,-999,0.00,,,-99.99,FreeWX 2.04,2013-01-21 01:04:00,
2013-01-20 18:14:00,12.0,-99.9,30.15,ESE,123,2.0,4.5,-999,0.00,,,-99.99,FreeWX 2.04,2013-01-21 01:14:00,
2013-01-20 18:24:00,12.0,-99.9,30.15,ESE,123,2.0,4.5,-999,0.00,,,-99.99,FreeWX 2.04,2013-01-21 01:24:00,
2013-01-20 18:34:00,11.1,-99.9,30.18,North,-999,0.0,0.0,-999,0.00,,,-99.99,FreeWX 2.04,2013-01-21 01:34:00,
2013-01-20 18:44:00,12.0,-99.9,30.18,North,-999,0.0,0.0,-999,0.00,,,-99.99,FreeWX 2.04,2013-01-21 01:44:00,
2013-01-20 18:54:00,10.0,-99.9,30.18,North,-999,0.0,4.5,-999,0.00,,,-99.99,FreeWX 2.04,2013-01-21 01:54:00,
2013-01-20 19:05:00,9.0,-99.9,30.18,ESE,123,2.0,5.4,-999,0.00,,,-99.99,FreeWX 2.04,2013-01-21 02:05:00,
2013-01-20 19:15:00,9.9,-99.9,30.18,ESE,115,4.0,6.3,-999,0.00,,,-99.99,FreeWX 2.04,2013-01-21 02:15:00,
2013-01-20 19:25:00,10.6,-99.9,30.18,ESE,118,5.0,7.8,-999,0.00,,,-99.99,FreeWX 2.04,2013-01-21 02:25:00,
2013-01-20 19:35:00,10.4,-99.9,30.15,ESE,118,4.0,7.4,-999,0.00,,,-99.99,FreeWX 2.04,2013-01-21 02:35:00,
2013-01-20 19:45:00,11.5,-99.9,30.15,ESE,118,4.0,7.4,-999,0.00,,,-99.99,FreeWX 2.04,2013-01-21 02:45:00,
2013-01-20 19:55:00,10.6,-99.9,30.15,SE,133,6.0,7.8,-999,0.00,,,-99.99,FreeWX 2.04,2013-01-21 02:55:00,
2013-01-20 20:05:00,10.9,-99.9,30.15,ESE,122,5.0,7.8,-999,0.00,,,-99.99,FreeWX 2.04,2013-01-21 03:05:00,
2013-01-20 20:15:00,11.7,-99.9,30.15,SSE,153,5.0,7.4,-999,0.00,,,-99.99,FreeWX 2.04,2013-01-21 03:15:00,
2013-01-20 20:25:00,11.7,-99.9,30.15,SSE,154,5.0,8.3,-999,0.00,,,-99.99,FreeWX 2.04,2013-01-21 03:25:00,
2013-01-20 20:35:00,11.8,-99.9,30.15,ESE,115,5.0,8.7,-999,0.00,,,-99.99,FreeWX 2.04,2013-01-21 03:35:00,
2013-01-20 20:45:00,12.0,-99.9,30.15,ESE,114,6.0,8.3,-999,0.00,,,-99.99,FreeWX 2.04,2013-01-21 03:45:00,
2013-01-20 20:55:00,10.4,-99.9,30.18,SE,133,4.0,7.4,-999,0.00,,,-99.99,FreeWX 2.04,2013-01-21 03:55:00,
2013-01-20 21:05:00,9.3,-99.9,30.18,SE,134,2.0,5.4,-999,0.00,,,-99.99,FreeWX 2.04,2013-01-21 04:05:00,
2013-01-20 21:15:00,9.0,-99.9,30.18,SE,133,3.0,5.8,-999,0.00,,,-99.99,FreeWX 2.04,2013-01-21 04:15:00,
2013-01-20 21:25:00,8.8,-99.9,30.18,SE,126,5.0,7.8,-999,0.00,,,-99.99,FreeWX 2.04,2013-01-21 04:25:00,
2013-01-20 21:35:00,8.1,-99.9,30.18,SE,126,4.0,6.3,-999,0.00,,,-99.99,FreeWX 2.04,2013-01-21 04:35:00,
2013-01-20 21:45:00,8.4,-99.9,30.18,SE,126,5.0,7.4,-999,0.00,,,-99.99,FreeWX 2.04,2013-01-21 04:45:00,
2013-01-20 21:55:00,7.9,-99.9,30.18,SE,126,2.0,5.4,-999,0.00,,,-99.99,FreeWX 2.04,2013-01-21 04:55:00,
2013-01-20 22:05:00,7.3,-99.9,30.18,SE,124,4.0,6.3,-999,0.00,,,-99.99,FreeWX 2.04,2013-01-21 05:05:00,
2013-01-20 22:15:00,7.2,-99.9,30.18,ESE,123,3.0,5.8,-999,0.00,,,-99.99,FreeWX 2.04,2013-01-21 05:15:00,
2013-01-20 22:25:00,8.4,-99.9,30.18,ESE,122,5.0,7.4,-999,0.00,,,-99.99,FreeWX 2.04,2013-01-21 05:25:00,
2013-01-20 22:35:00,8.6,-99.9,30.18,ESE,112,5.0,6.9,-999,0.00,,,-99.99,FreeWX 2.04,2013-01-21 05:35:00,
2013-01-20 22:45:00,8.4,-99.9,30.18,ESE,114,4.0,6.3,-999,0.00,,,-99.99,FreeWX 2.04,2013-01-21 05:45:00,
2013-01-20 22:55:00,7.5,-99.9,30.18,ESE,114,5.0,6.9,-999,0.00,,,-99.99,FreeWX 2.04,2013-01-21 05:55:00,
2013-01-20 23:05:00,7.3,-99.9,30.18,ESE,115,3.0,6.3,-999,0.00,,,-99.99,FreeWX 2.04,2013-01-21 06:05:00,
2013-01-20 23:15:00,8.2,-99.9,30.18,ESE,115,4.0,6.3,-999,0.00,,,-99.99,FreeWX 2.04,2013-01-21 06:15:00,
2013-01-20 23:25:00,8.8,-99.9,30.18,ESE,115,4.0,6.7,-999,0.00,,,-99.99,FreeWX 2.04,2013-01-21 06:25:00,
2013-01-20 23:35:00,9.1,-99.9,30.15,ESE,114,4.0,6.7,-999,0.00,,,-99.99,FreeWX 2.04,2013-01-21 06:35:00,
2013-01-20 23:45:00,9.7,-99.9,30.15,ESE,114,2.0,5.4,-999,0.00,,,-99.99,FreeWX 2.04,2013-01-21 06:45:00,
2013-01-20 23:55:00,9.3,-99.9,30.15,North,-999,0.0,4.5,-999,0.00,,,-99.99,FreeWX 2.04,2013-01-21 06:55:00,